Starlink 11180

operational
NORAD ID: 60185 Int'l Des: 2024-124 Owner: SPXS Country: US Constellation: starlink
LEOCIRCULAR

Über Starlink 11180

Beschreibung wird geladen...

Live-Position

3D-Globus wird geladen...

Nächste Überflüge

Höhenverlauf

Altitude vs Time

uPlot chart will show altitude changes over time

Zweizeiliger Elementsatz

1 60185U 24124C 25307.73207546 .00000766 00000-0 11181-4 0 9999
2 60185 53.1600 61.9913 0000771 91.7716 268.3390 15.69706474 76757
Epoch: 3. Nov. 2025 • Age: 10 hours

Aktueller Status

Höhe 365.6 km
Geschwindigkeit 7.70 km/s
Subsatellitenpunkt 52.66°N, 71.57°E
Startdatum 3. Juli 2024
Alter 1.3 years
Typ internet

Technische Details

Klassifizierung Payload
Masse 960.00 kg
Trockenmasse 910.00 kg
Gesamtmasse 960.00 kg
Länge 0.30 m
Durchmesser 4.10 m
Spannweite 29.00 m
Form Box + pan
Hersteller SPXS
Bus-Typ Starlink V2MD
Phasenstatus In Orbit
Besitzer/Staat SPXS/US

Große Konstellationen

Loading constellations...